BGBWCYMH

Guest
Details From BGBW - Narsarsuaq
To CYMH - Marys Harbour
Flight Number -
Tags generated
Created
Modified
Stats Distance 817 nm / 1,512 km
Max Altitude 34,000 ft / 10,363 m
Waypoints 6
Social Downloads 0
Likes 0
Share VATSIM

Download

Looking for another format? Having issues loading an existing format? Contact us
Advertisement - Login to hide

Notes

Basic altitude profile: - Ascent Rate: 2500ft/min - Ascent Speed: 250kts - Cruise Altitude: 35000ft - Cruise Speed: 420kts - Descent Rate: 1500ft/min - Descent Speed: 250kts Options: - Use NATs: yes - Use PACOTS: yes - Use low airways: yes - Use high airways: yes

Route

BGBW OZN 5E20 LOACH CA CYMH

ID Type Via Altitude Latitude Longitude Leg Dist Tot Dist Heading (true) Name
O BGBW APT - 0 ft / 0 m 61.16052˚ -45.42598˚ - 0 nm - Narsarsuaq
OZN NDB - 33,500 ft / 10,211 m 60.05722˚ -43.15972˚ 94 nm 94 nm 134° / 136° PRINS CHRISTIAN SUND NDB
5850N FIX 5E20 (AWY-HI) 34,000 ft / 10,363 m 58.00000˚ -50.00000˚ 244 nm 338 nm 243° / 237° -
LOACH FIX 5E20 (AWY-HI) 34,000 ft / 10,363 m 55.51667˚ -57.01667˚ 274 nm 613 nm 240° / 234° -
CA NDB - 20,200 ft / 6,157 m 53.70906˚ -57.02100˚ 108 nm 722 nm 180° / 180° CARTWRIGHT NDB
O CYMH APT - 0 ft / 0 m 52.30225˚ -55.84542˚ 94 nm 816 nm 153° / 154° Marys Harbour

Altitude Profile

Advertisement - Login to hide

Weather


0- 5 10 15 20 25 30 35+ Temperature / ° C

Clouds and Precipitation
Forecast for 2018-05-22 06:00 UTC. Updated 3 hours ago

Ground ~20,000 ft ~40,000 ft Winds

BGBW

Details ICAO BGBW (UAK)
Name Narsarsuaq
Region Greenland
Timezone America/Godthab (UTC-2.0)
Stats Elevation 112 ft / 34 m (AMSL)
Location 61.160516° -45.425976°
Runways 1
Magnetic Variation 22.775° W

METAR

BGBW 220750Z VRB04KT 9999 FEW075 BKN100 BKN120 04/M08 Q0990

Decode

TAF

Not found

Departure Runways

ID Width Length Bearing (true) Bearing (mag) Surface Threshold Offset Overrun Length
07 148 ft / 45 m 5,921 ft / 1,805 m 40.57° 63.34° Concrete 0 ft / 0 m 0 ft / 0 m
25 148 ft / 45 m 5,921 ft / 1,805 m 220.58° 243.35° Concrete 0 ft / 0 m 279 ft / 85 m

CYMH

Details ICAO CYMH (YMH)
Name Marys Harbour
Region Canada
Timezone America/St_Johns (UTC-2.5)
Stats Elevation 38 ft / 12 m (AMSL)
Location 52.302250° -55.845423°
Runways 1
Magnetic Variation 20.211° W

METAR

CYMH 220800Z AUTO 32004KT 9SM OVC040 M01/M05 A2987 RMK SLP118

Decode

TAF

TAF CYMH 220838Z 2209/2221 32005KT P6SM BKN040 TEMPO 2209/2221 SCT040 BECMG 2211/2213 31010G20KT RMK FCST BASED ON AUTO OBS. NXT FCST BY 221400Z

Decode

Destination Runways

ID Width Length Bearing (true) Bearing (mag) Surface Threshold Offset Overrun Length
11 98 ft / 30 m 2,549 ft / 777 m 85.00° 105.21° Gravel 0 ft / 0 m 0 ft / 0 m
29 98 ft / 30 m 2,549 ft / 777 m 265.01° 285.22° Gravel 0 ft / 0 m 0 ft / 0 m

Popular Alternatives